Location: *
(46.4000°N, 12.6667°E)
Time: 14:29:43
(UTC+00:00)

Envisat - Pass Details

Date: 09 March 2021
Orbit: 764 x 766 km, 98.1° (Epoch: 17 April)

Event Time Altitude Azimuth Distance (km) Brightness Sun altitude
Rises 04:34:47 0° 17° (NNE) 3,244 6.5 -11.0°
Reaches altitude 10° 04:37:09 10° 21° (NNE) 2,313 5.8 -10.6°
Maximum altitude 04:42:10 57° 100° (E) 897 3.8 -9.7°
Drops below altitude 10° 04:47:09 10° 180° (S) 2,295 5.5 -8.8°
Sets 04:49:29 0° 184° (S) 3,216 6.2 -8.4°
